Regional Weather Roundup
Issued by NWS

Home | Current Version | Previous Version | Graphics & Text | Print | Product List | Glossary On
Versions: 1 2 3 4 5 6 7 8 9 10 11 12 13 14 15 16 17 18 19 20 21 22 23 24 25 26 27 28 29 30 31 32 33 34 35 36 37 38 39 40 41 42 43 44 45 46 47 48 49 50
000
ASUS43 KMKX 240100
RWRWI

WISCONSIN REGIONAL WEATHER ROUNDUP
NATIONAL WEATHER SERVICE MILWAUKEE/SULLIVAN WI
800 PM CDT TUE SEP 23 2014

NOTE: "FAIR" INDICATES FEW OR NO CLOUDS BELOW 12,000 FEET WITH NO
SIGNIFICANT WEATHER AND/OR OBSTRUCTIONS TO VISIBILITY.

WIZ001-002-006>008-014>016-023>028-240200-
NORTHWEST WISCONSIN

CITY           SKY/WX    TMP DP  RH WIND       PRES   REMARKS
SUPERIOR ARPT  MOCLDY    57  55  94 NE3       30.15S
ASHLAND        PTCLDY    55  51  86 S5        30.19R
HAYWARD        MOCLDY    59  53  80 CALM      30.20R
SIREN          PTCLDY    63  53  70 SE3       30.17S
CUMBERLAND     MOCLDY    59  52  77 SE6       30.19S
RICE LAKE      MOCLDY    62  51  67 SE6       30.20S
CHETEK         MOCLDY    62  54  74 E6        30.20R
LADYSMITH      MOCLDY    63  52  67 CALM      30.23R
EAU CLAIRE     NOT AVBL
MENOMONIE      PTCLDY    63  52  67 E6        30.19S
NEW RICHMOND   PTCLDY    62  51  66 SE6       30.17S
OSCEOLA        PTCLDY    63  51  65 SE7       30.18S
$$

WIZ003>005-009-010-017-018-240200-
NORTH CENTRAL WISCONSIN

CITY           SKY/WX    TMP DP  RH WIND       PRES   REMARKS
MANITOWISH WTR CLEAR     53  51  92 S3        30.22S
ARBOR VITAE    CLEAR     59  52  77 CALM      30.24R
WOODRUFF       CLEAR     59  52  77 CALM      30.24R
RHINELANDER    CLEAR     53  50  89 CALM      30.26R
EAGLE RIVER    CLEAR     55  50  83 CALM      30.24R
LAND O LAKES   CLEAR     53  52  95 CALM      30.25R
PHILLIPS       PTCLDY    60  52  73 CALM      30.22R
TOMAHAWK       PTCLDY    55  51  84 CALM      30.24S
MEDFORD        MOCLDY    56  52  84 S3        30.24R
MERRILL        PTCLDY    56  53  90 CALM      30.24R
$$

WIZ029-030-035-036-043>047-240200-
CENTRAL WISCONSIN

CITY           SKY/WX    TMP DP  RH WIND       PRES   REMARKS
WAUSAU         PTCLDY    60  53  77 CALM      30.23R
MOSINEE        CLEAR     61  54  77 S3        30.26R
MARSHFIELD     MOCLDY    59  52  77 S5        30.24R
STEVENS POINT  PTCLDY    56  52  86 CALM      30.25R
WAUPACA        CLEAR     61  55  78 CALM      30.25R
WAUTOMA        NOT AVBL
WISC RAPIDS    MOCLDY    58  53  84 CALM      30.26R
CAMP DOUGLAS   NOT AVBL
$$

WIZ011>013-019>022-031-037>040-048>050-240200-
NORTHEAST WISCONSIN

CITY           SKY/WX    TMP DP  RH WIND       PRES   REMARKS
ANTIGO         CLEAR     56  51  84 S5        30.26R
SHAWANO        CLEAR     62  55  77 CALM      30.25R
OCONTO         CLEAR     62  57  85 SE6       30.25R
STURGEON BAY   CLEAR     57  50  77 S10       30.28R
GREEN BAY      CLEAR     59  55  87 SE5       30.27R
MANITOWOC      NOT AVBL
APPLETON       PTCLDY    64  52  63 CALM      30.26S
CLINTONVILLE   CLEAR     59  54  82 CALM      30.24S
OSHKOSH        CLEAR     56  52  86 S3        30.25R
$$

WIZ032>034-041-042-053>061-240200-
SOUTHWEST WISCONSIN

CITY           SKY/WX    TMP DP  RH WIND       PRES   REMARKS
LA CROSSE      PTCLDY    66  51  58 E6        30.21R
SPARTA         PTCLDY    58  52  81 CALM      30.23S
VIROQUA        PTCLDY    62  49  62 SE6       30.23S
BOSCOBEL       PTCLDY    58  54  86 CALM      30.24R
PRAIRIE DU CHI MOCLDY    61  51  68 E6        30.21S
PLATTEVILLE    MOCLDY    64  49  57 SE6       30.25S
$$

WIZ056-057-062-063-064-067-068-240200-
SOUTH CENTRAL WISCONSIN

CITY           SKY/WX    TMP DP  RH WIND       PRES   REMARKS
REEDSBURG      MOCLDY    60  55  83 CALM      30.24S
BARABOO/DELLS  MOCLDY    59  51  74 CALM      30.25R
LONE ROCK      NOT AVBL
MINERAL POINT  PTCLDY    64  45  48 SE3       30.25S
MADISON        MOCLDY    59  52  77 CALM      30.26R
MIDDLETON      MOCLDY    57  54  91 CALM      30.26R
WATERTOWN      PTCLDY    55  52  90 CALM      30.26R
MONROE         MOCLDY    63  50  63 SE7       30.26R
JANESVILLE     CLEAR     63  52  67 SE6       30.27R
$$

WIZ051-052-058>065-066-070>072-240200-
SOUTHEAST WISCONSIN

CITY           SKY/WX    TMP DP  RH WIND       PRES   REMARKS
MILWAUKEE      PTCLDY    60  47  61 S6        30.29R
WAUKESHA       CLEAR     61  52  72 SE8       30.29
MILWAUKEE/TIMM CLEAR     63  48  59 S6        30.29R
RACINE         CLEAR     61  49  64 S6        30.31R
BURLINGTON     CLEAR     59  50  72 SE6       30.28R
KENOSHA        CLEAR     59  49  69 S7        30.30R
FOND DU LAC    CLEAR     59  53  80 S3        30.26R
SHEBOYGAN      CLEAR     56  50  80 CALM      30.28R
WEST BEND      CLEAR     57  48  72 CALM      30.27S
JUNEAU         CLEAR     61  50  66 CALM      30.27S
$$

LSZ147-162-240200-
LAKE SUPERIOR

STATION/POSITION TIME  TEMP    WIND        PRES    WAVE
                       AIR SEA DIR/SP/G            HT/PER
                 (UTC) (F)     (DEG/KT/KT) (MB)    (FT/S)
W MID LAKE BUOY  2350   53 50  120/  8/  8 1021.9F   1
DEVILS ISLAND    0000   59     130/  9/ 10 1021.6R
PORT WING        0040   61     130/  1/  3 1021.3R
SAXON HARBOR     0000   60        CALM     1021.7S
$$

LMZ867-665-643>646-240200-
LAKE MICHIGAN

STATION/POSITION TIME  TEMP    WIND        PRES    WAVE
                       AIR SEA DIR/SP/G            HT/PER
                 (UTC) (F)     (DEG/KT/KT) (MB)    (FT/S)
CHAMBERS ISLAND  0000   62     130/  4/  7 1024.0S
S GREEN BAY BUOY 2300   65                 1025.0R
N MID LAKE BUOY  2350   59 58  200/ 10/ 12 1024.9R   1/ 3
NORTHPORT PIER   0000   60     160/  7/ 13 1024.4R
SISTER BAY       0042          170/  9/ 14   N/A
ALGOMA LAKESHORE 0025          230/  8/  9   N/A
KEWAUNEE LAKESHO 0000   58     180/ 13/ 15 1024.0R
SHEBOYGAN LAKESH 0000   62 53  190/ 13/ 14 1025.3R
PORT WASHINGTON  0040   58     190/  3/  6 1025.7R
ATWATER BUOY     0000   60     180/ 10/ 12 1025.9S
S MID LAKE BUOY  2350   62 62  160/  6/  8 1025.9R   1
KENOSHA   LAKESH 0000   62     190/  8/ 11 1024.7S
$$

TC  - TEMPERATURE IN CELSIUS
VSB - VISIBILITY IN STATUTE MILES
WCI - WIND CHILL INDEX
HX  - HEAT INDEX



USA.gov is the U.S. government's official web portal to all federal, state and local government web resources and services.